| time (UTC) | temp F | wind direction | speed MPH | gust MPH | rain 1hr in | rain 24hr in | rain mn in | humidity % | barometer mb |
| 20260904035039 | 63 | 299 | 0.0 | 0.0 | 0.00 | 0.04 | 0.00 | 91 | 1011.0 |
| 20260904034544 | 63 | 299 | 0.0 | 0.0 | 0.00 | 0.04 | 0.00 | 91 | 1011.0 |
| 20260904034038 | 63 | 299 | 0.0 | 0.0 | 0.00 | 0.04 | 0.00 | 91 | 1011.0 |
| 20260904033538 | 63 | 299 | 0.0 | 0.0 | 0.00 | 0.04 | 0.00 | 91 | 1011.0 |
| 20260904033039 | 63 | 299 | 0.0 | 0.0 | 0.00 | 0.04 | 0.00 | 91 | 1010.9 |
| 20260904032537 | 63 | 298 | 0.0 | 0.0 | 0.00 | 0.04 | 0.00 | 91 | 1011.0 |
| 20260904032037 | 63 | 298 | 0.0 | 0.0 | 0.00 | 0.04 | 0.00 | 90 | 1011.1 |
| 20260904031536 | 63 | 298 | 0.0 | 0.0 | 0.00 | 0.04 | 0.00 | 90 | 1011.2 |
| 20260904031035 | 64 | 298 | 0.0 | 0.0 | 0.00 | 0.04 | 0.00 | 91 | 1011.1 |
| 20260904030535 | 64 | 298 | 0.0 | 0.0 | 0.00 | 0.04 | 0.00 | 91 | 1011.1 |
| 20260904030035 | 64 | 298 | 0.0 | 0.0 | 0.00 | 0.04 | 0.00 | 90 | 1011.2 |
| 20260904025535 | 64 | 298 | 0.0 | 0.0 | 0.00 | 0.12 | 0.00 | 90 | 1011.2 |
| 20260904025035 | 64 | 298 | 0.0 | 0.0 | 0.00 | 0.12 | 0.00 | 90 | 1011.1 |
| 20260904024545 | 64 | 298 | 0.0 | 0.0 | 0.00 | 0.12 | 0.00 | 90 | 1011.2 |
| 20260904024035 | 64 | 298 | 0.0 | 0.0 | 0.00 | 0.12 | 0.00 | 89 | 1011.3 |
| 20260904023534 | 64 | 298 | 0.0 | 0.0 | 0.00 | 0.12 | 0.00 | 89 | 1011.2 |
| 20260904023035 | 64 | 298 | 0.0 | 0.0 | 0.00 | 0.12 | 0.00 | 89 | 1011.2 |
| 20260904022535 | 64 | 298 | 0.0 | 0.0 | 0.00 | 0.12 | 0.00 | 89 | 1011.3 |
| 20260904022034 | 64 | 298 | 0.0 | 0.0 | 0.00 | 0.12 | 0.00 | 88 | 1011.3 |
| 20260904021535 | 64 | 298 | 0.0 | 0.0 | 0.00 | 0.12 | 0.00 | 88 | 1011.4 |
| 20260904021036 | 64 | 298 | 0.0 | 0.0 | 0.00 | 0.12 | 0.00 | 87 | 1011.7 |
| 20260904020533 | 64 | 298 | 0.0 | 0.0 | 0.00 | 0.12 | 0.00 | 87 | 1011.7 |
| 20260904020033 | 64 | 298 | 0.0 | 0.0 | 0.00 | 0.12 | 0.00 | 86 | 1011.6 |
| 20260904015532 | 65 | 296 | 0.0 | 0.0 | 0.00 | 0.16 | 0.00 | 86 | 1011.6 |
| 20260904015032 | 65 | 296 | 0.0 | 0.0 | 0.00 | 0.16 | 0.00 | 86 | 1011.6 |
| 20260904014536 | 65 | 296 | 0.0 | 0.0 | 0.00 | 0.16 | 0.00 | 85 | 1011.6 |
| 20260904014034 | 65 | 296 | 0.0 | 0.0 | 0.00 | 0.16 | 0.00 | 85 | 1011.7 |
| 20260904013532 | 65 | 296 | 0.0 | 0.0 | 0.00 | 0.16 | 0.00 | 85 | 1011.6 |
| 20260904013036 | 65 | 296 | 0.0 | 0.0 | 0.00 | 0.16 | 0.00 | 85 | 1011.7 |
| 20260904012534 | 65 | 296 | 0.0 | 0.0 | 0.00 | 0.16 | 0.00 | 85 | 1011.7 |
| 20260904012032 | 65 | 296 | 0.0 | 0.0 | 0.00 | 0.16 | 0.00 | 85 | 1011.7 |
| 20260904011536 | 65 | 296 | 0.0 | 0.0 | 0.00 | 0.16 | 0.00 | 85 | 1011.5 |
| 20260904011033 | 65 | 296 | 0.0 | 0.0 | 0.00 | 0.16 | 0.00 | 86 | 1011.4 |
| 20260904010532 | 65 | 296 | 0.0 | 0.0 | 0.00 | 0.16 | 0.00 | 85 | 1011.5 |
| 20260904010039 | 65 | 296 | 0.0 | 0.0 | 0.00 | 0.16 | 0.00 | 85 | 1011.5 |
| 20260904005530 | 65 | 296 | 0.0 | 0.0 | 0.00 | 0.16 | 0.00 | 85 | 1011.4 |
| 20260904005030 | 65 | 296 | 0.0 | 0.0 | 0.00 | 0.16 | 0.00 | 84 | 1011.5 |
| 20260904004530 | 66 | 296 | 0.0 | 0.0 | 0.00 | 0.16 | 0.00 | 84 | 1011.4 |
| 20260904004030 | 66 | 296 | 0.0 | 0.0 | 0.00 | 0.16 | 0.00 | 83 | 1011.3 |
| 20260904003530 | 66 | 296 | 0.0 | 0.0 | 0.00 | 0.16 | 0.00 | 83 | 1011.3 |
| 20260904003033 | 66 | 296 | 0.0 | 0.0 | 0.00 | 0.16 | 0.00 | 81 | 1011.2 |
| 20260904002529 | 66 | 296 | 0.0 | 0.0 | 0.00 | 0.16 | 0.00 | 82 | 1011.1 |
| 20260904002030 | 66 | 296 | 0.0 | 0.0 | 0.00 | 0.16 | 0.00 | 83 | 1011.2 |
| 20260904001533 | 66 | 296 | 0.0 | 0.0 | 0.00 | 0.16 | 0.00 | 82 | 1011.1 |
| 20260904001028 | 66 | 296 | 0.0 | 0.0 | 0.00 | 0.16 | 0.00 | 80 | 1011.2 |
| 20260904000529 | 66 | 296 | 0.0 | 0.0 | 0.00 | 0.16 | 0.00 | 80 | 1011.1 |
| 20260904000029 | 66 | 296 | 0.0 | 0.0 | 0.00 | 0.16 | 0.00 | 80 | 1011.3 |
| 20260903235528 | 67 | 296 | 0.0 | 0.0 | 0.00 | 0.16 | 0.00 | 78 | 1011.2 |
| 20260903235028 | 67 | 296 | 0.0 | 0.0 | 0.00 | 0.16 | 0.00 | 78 | 1011.1 |
| 20260903234528 | 67 | 296 | 0.0 | 0.0 | 0.00 | 0.16 | 0.00 | 79 | 1011.1 |
| 20260903234028 | 67 | 296 | 0.0 | 0.0 | 0.00 | 0.16 | 0.00 | 79 | 1011.1 |
| 20260903233528 | 67 | 296 | 0.0 | 0.0 | 0.00 | 0.16 | 0.00 | 79 | 1011.1 |
| 20260903233029 | 68 | 296 | 0.0 | 0.0 | 0.00 | 0.16 | 0.00 | 79 | 1010.9 |
| 20260903232527 | 68 | 296 | 0.0 | 0.0 | 0.00 | 0.16 | 0.00 | 77 | 1010.9 |
| 20260903232028 | 68 | 297 | 0.0 | 0.0 | 0.00 | 0.16 | 0.00 | 76 | 1011.2 |
| 20260903231533 | 69 | 297 | 0.0 | 0.0 | 0.00 | 0.16 | 0.00 | 77 | 1011.1 |
| 20260903231026 | 69 | 297 | 0.0 | 0.0 | 0.00 | 0.16 | 0.00 | 77 | 1010.9 |
| 20260903230528 | 70 | 297 | 0.0 | 0.0 | 0.00 | 0.16 | 0.00 | 77 | 1011.0 |
| 20260903230032 | 70 | 297 | 0.0 | 0.0 | 0.00 | 0.16 | 0.00 | 76 | 1011.0 |
| 20260903225528 | 70 | 297 | 0.0 | 0.0 | 0.00 | 0.16 | 0.00 | 77 | 1010.9 |
| 20260903225027 | 71 | 297 | 0.0 | 0.0 | 0.00 | 0.16 | 0.00 | 74 | 1010.8 |
| 20260903224547 | 71 | 297 | 0.0 | 0.0 | 0.00 | 0.16 | 0.00 | 75 | 1011.0 |
| 20260903224026 | 72 | 297 | 0.0 | 0.0 | 0.00 | 0.16 | 0.00 | 76 | 1011.0 |
| 20260903223526 | 72 | 297 | 0.0 | 0.0 | 0.00 | 0.16 | 0.00 | 75 | 1011.1 |
| 20260903223027 | 72 | 297 | 0.0 | 0.0 | 0.00 | 0.16 | 0.00 | 71 | 1011.0 |
| 20260903222528 | 72 | 297 | 0.0 | 0.0 | 0.00 | 0.16 | 0.00 | 71 | 1011.0 |
| 20260903222026 | 73 | 297 | 0.0 | 0.0 | 0.00 | 0.16 | 0.00 | 70 | 1010.9 |
| 20260903221532 | 73 | 297 | 0.0 | 0.0 | 0.00 | 0.16 | 0.00 | 69 | 1010.9 |
| 20260903221024 | 73 | 297 | 0.0 | 0.0 | 0.00 | 0.16 | 0.00 | 66 | 1010.9 |
| 20260903220528 | 73 | 297 | 0.0 | 0.0 | 0.00 | 0.16 | 0.00 | 67 | 1010.9 |
| 20260903220025 | 74 | 297 | 0.0 | 1.0 | 0.00 | 0.16 | 0.00 | 63 | 1010.9 |
| 20260903215524 | 74 | 298 | 0.0 | 6.0 | 0.00 | 0.16 | 0.00 | 59 | 1010.9 |
| 20260903215025 | 74 | 298 | 1.0 | 6.0 | 0.00 | 0.16 | 0.00 | 58 | 1010.9 |
| 20260903214536 | 74 | 303 | 2.0 | 7.0 | 0.00 | 0.16 | 0.00 | 58 | 1010.9 |
| 20260903214024 | 74 | 309 | 3.0 | 10.0 | 0.00 | 0.16 | 0.00 | 57 | 1010.9 |
| 20260903213525 | 75 | 290 | 4.0 | 10.0 | 0.00 | 0.16 | 0.00 | 56 | 1010.9 |
| 20260903213028 | 75 | 299 | 3.0 | 10.0 | 0.00 | 0.16 | 0.00 | 55 | 1010.9 |
| 20260903212526 | 75 | 325 | 5.0 | 10.0 | 0.00 | 0.16 | 0.00 | 54 | 1010.9 |
| 20260903212023 | 75 | 344 | 5.0 | 10.0 | 0.00 | 0.16 | 0.00 | 55 | 1011.0 |
| 20260903211521 | 75 | 304 | 5.0 | 9.0 | 0.00 | 0.16 | 0.00 | 55 | 1011.1 |
| 20260903211021 | 75 | 309 | 5.0 | 9.0 | 0.00 | 0.16 | 0.00 | 57 | 1011.2 |
| 20260903210522 | 75 | 310 | 3.0 | 9.0 | 0.00 | 0.16 | 0.00 | 59 | 1011.1 |
| 20260903210022 | 75 | 288 | 3.0 | 10.0 | 0.00 | 0.16 | 0.00 | 58 | 1011.1 |
| 20260903205521 | 75 | 300 | 3.0 | 10.0 | 0.00 | 0.16 | 0.00 | 56 | 1011.1 |
| 20260903205021 | 75 | 309 | 4.0 | 13.0 | 0.00 | 0.16 | 0.00 | 56 | 1011.1 |
| 20260903204522 | 76 | 281 | 4.0 | 17.0 | 0.00 | 0.16 | 0.00 | 55 | 1011.2 |
| 20260903204021 | 76 | 292 | 9.0 | 18.0 | 0.00 | 0.16 | 0.00 | 54 | 1011.2 |
| 20260903203520 | 77 | 269 | 7.0 | 12.0 | 0.00 | 0.16 | 0.00 | 56 | 1011.2 |
| 20260903203019 | 76 | 307 | 3.0 | 9.0 | 0.00 | 0.16 | 0.00 | 57 | 1011.3 |
| 20260903202519 | 76 | 277 | 4.0 | 12.0 | 0.00 | 0.16 | 0.00 | 57 | 1011.2 |
| 20260903202019 | 76 | 311 | 3.0 | 12.0 | 0.00 | 0.16 | 0.00 | 56 | 1011.2 |
| 20260903201518 | 76 | 296 | 5.0 | 10.0 | 0.00 | 0.16 | 0.00 | 56 | 1011.1 |
| 20260903201020 | 76 | 315 | 4.0 | 9.0 | 0.00 | 0.16 | 0.00 | 58 | 1011.0 |
| 20260903200517 | 76 | 284 | 5.0 | 11.0 | 0.00 | 0.16 | 0.00 | 57 | 1011.2 |
| 20260903200018 | 76 | 308 | 4.0 | 14.0 | 0.00 | 0.16 | 0.00 | 56 | 1011.2 |
| 20260903195517 | 76 | 303 | 7.0 | 14.0 | 0.00 | 0.16 | 0.00 | 57 | 1011.2 |
| 20260903195016 | 76 | 275 | 6.0 | 12.0 | 0.00 | 0.16 | 0.00 | 58 | 1011.2 |
| 20260903194516 | 76 | 312 | 5.0 | 15.0 | 0.00 | 0.16 | 0.00 | 57 | 1011.3 |
| 20260903194015 | 76 | 297 | 7.0 | 15.0 | 0.00 | 0.16 | 0.00 | 55 | 1011.2 |
| 20260903193515 | 76 | 306 | 5.0 | 12.0 | 0.00 | 0.16 | 0.00 | 57 | 1011.2 |
| 20260903193014 | 76 | 306 | 5.0 | 14.0 | 0.00 | 0.16 | 0.00 | 61 | 1011.3 |
| 20260903192513 | 76 | 296 | 4.0 | 14.0 | 0.00 | 0.16 | 0.00 | 58 | 1011.4 |
| 20260903192012 | 76 | 316 | 6.0 | 12.0 | 0.00 | 0.16 | 0.00 | 62 | 1011.4 |
| 20260903191514 | 76 | 298 | 7.0 | 12.0 | 0.00 | 0.16 | 0.00 | 62 | 1011.4 |
| 20260903191012 | 76 | 282 | 4.0 | 14.0 | 0.00 | 0.16 | 0.00 | 63 | 1011.4 |
| 20260903190512 | 76 | 303 | 9.0 | 14.0 | 0.00 | 0.16 | 0.00 | 61 | 1011.5 |
| 20260903190011 | 76 | 290 | 5.0 | 10.0 | 0.00 | 0.16 | 0.00 | 66 | 1011.5 |
| 20260903185510 | 76 | 290 | 5.0 | 13.0 | 0.00 | 0.16 | 0.00 | 67 | 1011.5 |
| 20260903185010 | 76 | 292 | 7.0 | 13.0 | 0.00 | 0.16 | 0.00 | 68 | 1011.2 |
| 20260903184509 | 75 | 311 | 7.0 | 14.0 | 0.00 | 0.16 | 0.00 | 66 | 1011.4 |
| 20260903184008 | 75 | 276 | 3.0 | 14.0 | 0.00 | 0.16 | 0.00 | 68 | 1011.5 |
| 20260903183510 | 75 | 301 | 8.0 | 13.0 | 0.00 | 0.16 | 0.00 | 66 | 1011.6 |
| 20260903183008 | 74 | 291 | 7.0 | 15.0 | 0.00 | 0.16 | 0.00 | 67 | 1011.5 |
| 20260903182511 | 75 | 313 | 8.0 | 13.0 | 0.00 | 0.16 | 0.00 | 69 | 1011.6 |
| 20260903182008 | 76 | 297 | 7.0 | 13.0 | 0.00 | 0.16 | 0.00 | 69 | 1011.6 |
| 20260903181505 | 75 | 275 | 7.0 | 15.0 | 0.00 | 0.16 | 0.00 | 67 | 1011.5 |
| 20260903181004 | 75 | 305 | 7.0 | 15.0 | 0.00 | 0.16 | 0.00 | 65 | 1011.5 |
| 20260903180503 | 74 | 291 | 6.0 | 16.0 | 0.00 | 0.16 | 0.00 | 69 | 1011.5 |
| 20260903180002 | 74 | 315 | 8.0 | 15.0 | 0.00 | 0.16 | 0.00 | 69 | 1011.5 |
| 20260903175501 | 73 | 294 | 8.0 | 13.0 | 0.00 | 0.16 | 0.00 | 71 | 1011.7 |
| 20260903175002 | 73 | 296 | 9.0 | 16.0 | 0.00 | 0.16 | 0.00 | 74 | 1011.7 |
| 20260903174502 | 74 | 294 | 11.0 | 16.0 | 0.00 | 0.16 | 0.00 | 74 | 1011.7 |
| 20260903174002 | 74 | 308 | 10.0 | 15.0 | 0.00 | 0.16 | 0.00 | 73 | 1011.6 |
| 20260903173600 | 74 | 290 | 5.0 | 11.0 | 0.00 | 0.16 | 0.00 | 76 | 1011.6 |
| 20260903173059 | 73 | 305 | 2.0 | 11.0 | 0.00 | 0.16 | 0.00 | 79 | 1011.7 |
| 20260903172558 | 73 | 294 | 3.0 | 9.0 | 0.00 | 0.16 | 0.00 | 78 | 1011.8 |
| 20260903172057 | 73 | 313 | 4.0 | 11.0 | 0.00 | 0.16 | 0.00 | 79 | 1011.7 |
| 20260903171558 | 72 | 275 | 3.0 | 11.0 | 0.00 | 0.16 | 0.00 | 79 | 1011.8 |
| 20260903171056 | 73 | 306 | 5.0 | 11.0 | 0.00 | 0.16 | 0.00 | 79 | 1011.9 |
| 20260903170556 | 73 | 327 | 3.0 | 9.0 | 0.00 | 0.16 | 0.00 | 81 | 1011.8 |
| 20260903170056 | 73 | 288 | 4.0 | 13.0 | 0.00 | 0.16 | 0.00 | 81 | 1011.9 |
| 20260903165555 | 72 | 306 | 6.0 | 13.0 | 0.00 | 0.28 | 0.00 | 81 | 1011.8 |
| 20260903165055 | 72 | 297 | 5.0 | 11.0 | 0.00 | 0.28 | 0.00 | 82 | 1011.9 |
| 20260903164557 | 72 | 302 | 4.0 | 12.0 | 0.00 | 0.28 | 0.00 | 81 | 1011.9 |
| 20260903164052 | 72 | 302 | 6.0 | 12.0 | 0.00 | 0.28 | 0.00 | 82 | 1012.0 |
| 20260903163551 | 71 | 283 | 4.0 | 11.0 | 0.00 | 0.28 | 0.00 | 83 | 1012.0 |
| 20260903163056 | 71 | 291 | 3.0 | 10.0 | 0.00 | 0.28 | 0.00 | 84 | 1012.2 |
| 20260903162550 | 71 | 311 | 5.0 | 10.0 | 0.00 | 0.28 | 0.00 | 84 | 1012.1 |
| 20260903162051 | 71 | 284 | 3.0 | 8.0 | 0.00 | 0.28 | 0.00 | 84 | 1012.1 |
| 20260903161549 | 71 | 284 | 0.0 | 6.0 | 0.00 | 0.28 | 0.00 | 84 | 1012.0 |
| 20260903161049 | 71 | 265 | 4.0 | 8.0 | 0.00 | 0.28 | 0.00 | 84 | 1012.1 |
| 20260903160549 | 71 | 305 | 2.0 | 11.0 | 0.00 | 0.28 | 0.00 | 84 | 1012.1 |
| 20260903160052 | 71 | 310 | 2.0 | 11.0 | 0.00 | 0.28 | 0.00 | 84 | 1012.2 |
| 20260903155548 | 71 | 302 | 2.0 | 6.0 | 0.00 | 0.37 | 0.00 | 85 | 1012.3 |
| 20260903155048 | 71 | 284 | 2.0 | 8.0 | 0.00 | 0.37 | 0.00 | 85 | 1012.3 |
| 20260903154604 | 71 | 305 | 3.0 | 9.0 | 0.00 | 0.37 | 0.00 | 85 | 1012.3 |
| 20260903154048 | 71 | 307 | 3.0 | 9.0 | 0.00 | 0.37 | 0.00 | 85 | 1012.3 |
| 20260903153550 | 71 | 275 | 3.0 | 9.0 | 0.00 | 0.37 | 0.00 | 84 | 1012.4 |
| 20260903153050 | 71 | 313 | 4.0 | 8.0 | 0.00 | 0.37 | 0.00 | 84 | 1012.4 |
| 20260903152547 | 71 | 269 | 1.0 | 8.0 | 0.00 | 0.37 | 0.00 | 84 | 1012.4 |
| 20260903152047 | 71 | 250 | 1.0 | 8.0 | 0.00 | 0.37 | 0.00 | 83 | 1012.3 |
| 20260903151546 | 71 | 249 | 1.0 | 7.0 | 0.00 | 0.37 | 0.00 | 83 | 1012.4 |
| 20260903151046 | 71 | 270 | 2.0 | 7.0 | 0.00 | 0.37 | 0.00 | 83 | 1012.3 |
| 20260903150546 | 71 | 217 | 1.0 | 5.0 | 0.00 | 0.37 | 0.00 | 82 | 1012.3 |
| 20260903150046 | 71 | 201 | 0.0 | 6.0 | 0.00 | 0.37 | 0.00 | 82 | 1012.4 |
| 20260903145548 | 71 | 198 | 1.0 | 7.0 | 0.00 | 0.37 | 0.00 | 82 | 1012.3 |
| 20260903145045 | 71 | 240 | 0.0 | 7.0 | 0.00 | 0.37 | 0.00 | 82 | 1012.3 |
| 20260903144544 | 71 | 234 | 1.0 | 7.0 | 0.00 | 0.37 | 0.00 | 83 | 1012.2 |
| 20260903144046 | 71 | 221 | 0.0 | 3.0 | 0.00 | 0.37 | 0.00 | 83 | 1012.3 |
| 20260903143543 | 71 | 263 | 0.0 | 3.0 | 0.00 | 0.37 | 0.00 | 83 | 1012.3 |
| 20260903143100 | 71 | 266 | 0.0 | 3.0 | 0.00 | 0.37 | 0.00 | 83 | 1012.2 |
| 20260903142542 | 70 | 107 | 1.0 | 4.0 | 0.00 | 0.37 | 0.00 | 85 | 1012.2 |
| 20260903142041 | 70 | 177 | 1.0 | 4.0 | 0.00 | 0.37 | 0.00 | 85 | 1012.1 |
| 20260903141555 | 69 | 261 | 0.0 | 7.0 | 0.00 | 0.37 | 0.00 | 87 | 1012.2 |
| 20260903141038 | 69 | 230 | 1.0 | 7.0 | 0.00 | 0.37 | 0.00 | 87 | 1012.2 |
| 20260903140537 | 69 | 164 | 1.0 | 7.0 | 0.00 | 0.37 | 0.00 | 88 | 1012.0 |
| 20260903140039 | 68 | 206 | 2.0 | 5.0 | 0.00 | 0.37 | 0.00 | 88 | 1012.0 |
| 20260903135536 | 68 | 262 | 1.0 | 7.0 | 0.00 | 0.37 | 0.00 | 88 | 1012.1 |
| 20260903135037 | 68 | 228 | 2.0 | 7.0 | 0.00 | 0.37 | 0.00 | 88 | 1012.1 |
| 20260903134537 | 68 | 244 | 1.0 | 4.0 | 0.00 | 0.37 | 0.00 | 88 | 1012.0 |
| 20260903134035 | 68 | 207 | 0.0 | 4.0 | 0.00 | 0.37 | 0.00 | 88 | 1012.0 |
| 20260903133534 | 68 | 289 | 0.0 | 3.0 | 0.00 | 0.37 | 0.00 | 89 | 1012.1 |
| 20260903133035 | 68 | 273 | 0.0 | 4.0 | 0.00 | 0.37 | 0.00 | 89 | 1012.1 |
| 20260903132533 | 67 | 271 | 1.0 | 4.0 | 0.00 | 0.37 | 0.00 | 89 | 1012.1 |
| 20260903132033 | 67 | 333 | 0.0 | 5.0 | 0.00 | 0.37 | 0.00 | 89 | 1012.1 |
| 20260903131534 | 67 | 226 | 2.0 | 5.0 | 0.00 | 0.37 | 0.00 | 90 | 1012.1 |
| 20260903131033 | 67 | 254 | 1.0 | 8.0 | 0.00 | 0.37 | 0.00 | 90 | 1012.1 |
| 20260903130533 | 67 | 211 | 1.0 | 8.0 | 0.00 | 0.37 | 0.00 | 90 | 1012.2 |
| 20260903130036 | 67 | 191 | 3.0 | 5.0 | 0.00 | 0.37 | 0.00 | 90 | 1012.1 |
| 20260903125532 | 66 | 222 | 2.0 | 5.0 | 0.00 | 0.37 | 0.00 | 90 | 1012.2 |
| 20260903125031 | 66 | 188 | 2.0 | 6.0 | 0.00 | 0.37 | 0.00 | 90 | 1012.1 |
| 20260903124531 | 66 | 180 | 3.0 | 7.0 | 0.00 | 0.37 | 0.00 | 90 | 1011.9 |
| 20260903124031 | 66 | 190 | 2.0 | 4.0 | 0.00 | 0.37 | 0.00 | 90 | 1012.1 |
| 20260903123531 | 66 | 179 | 1.0 | 5.0 | 0.00 | 0.37 | 0.00 | 90 | 1012.2 |
| 20260903123034 | 66 | 193 | 2.0 | 5.0 | 0.00 | 0.37 | 0.00 | 90 | 1012.2 |
| 20260903122530 | 66 | 182 | 1.0 | 8.0 | 0.00 | 0.37 | 0.00 | 90 | 1012.2 |
| 20260903122030 | 66 | 189 | 1.0 | 8.0 | 0.00 | 0.37 | 0.00 | 90 | 1012.3 |
| 20260903121530 | 66 | 220 | 2.0 | 7.0 | 0.00 | 0.37 | 0.00 | 90 | 1012.2 |
| 20260903121029 | 66 | 205 | 2.0 | 6.0 | 0.00 | 0.37 | 0.00 | 90 | 1012.2 |
| 20260903120529 | 66 | 202 | 2.0 | 7.0 | 0.00 | 0.37 | 0.00 | 90 | 1012.2 |
| 20260903120029 | 66 | 211 | 3.0 | 7.0 | 0.00 | 0.37 | 0.00 | 90 | 1012.0 |
| 20260903115528 | 66 | 196 | 1.0 | 6.0 | 0.00 | 0.37 | 0.00 | 90 | 1012.0 |
| 20260903115028 | 66 | 196 | 4.0 | 9.0 | 0.00 | 0.37 | 0.00 | 90 | 1011.9 |
| 20260903114528 | 66 | 220 | 5.0 | 9.0 | 0.00 | 0.37 | 0.00 | 90 | 1011.9 |
| 20260903114028 | 66 | 206 | 4.0 | 9.0 | 0.00 | 0.37 | 0.00 | 90 | 1011.8 |
| 20260903113528 | 66 | 204 | 4.0 | 9.0 | 0.00 | 0.37 | 0.00 | 90 | 1011.9 |
| 20260903113030 | 66 | 219 | 1.0 | 6.0 | 0.00 | 0.37 | 0.00 | 90 | 1011.9 |
| 20260903112527 | 66 | 215 | 1.0 | 10.0 | 0.00 | 0.37 | 0.00 | 90 | 1011.9 |
| 20260903112032 | 66 | 200 | 3.0 | 10.0 | 0.00 | 0.37 | 0.00 | 90 | 1011.9 |
| 20260903111535 | 66 | 175 | 2.0 | 10.0 | 0.00 | 0.37 | 0.00 | 89 | 1012.0 |
| 20260903111026 | 66 | 198 | 4.0 | 9.0 | 0.00 | 0.37 | 0.00 | 89 | 1012.0 |
| 20260903110526 | 66 | 194 | 2.0 | 10.0 | 0.00 | 0.37 | 0.00 | 89 | 1012.0 |
| 20260903110025 | 66 | 215 | 5.0 | 11.0 | 0.00 | 0.37 | 0.00 | 89 | 1011.9 |
| 20260903105525 | 66 | 216 | 4.0 | 16.0 | 0.00 | 0.37 | 0.00 | 89 | 1011.9 |
| 20260903105025 | 66 | 249 | 3.0 | 16.0 | 0.00 | 0.37 | 0.00 | 89 | 1011.9 |
| 20260903104525 | 66 | 208 | 4.0 | 10.0 | 0.00 | 0.37 | 0.00 | 89 | 1011.9 |
| 20260903104025 | 66 | 201 | 3.0 | 10.0 | 0.00 | 0.37 | 0.00 | 88 | 1012.0 |
| 20260903103524 | 66 | 207 | 3.0 | 9.0 | 0.00 | 0.37 | 0.00 | 88 | 1012.0 |
| 20260903103027 | 66 | 209 | 3.0 | 11.0 | 0.00 | 0.37 | 0.00 | 88 | 1012.1 |
| 20260903102524 | 66 | 223 | 3.0 | 11.0 | 0.00 | 0.37 | 0.00 | 88 | 1012.0 |
| 20260903102022 | 66 | 205 | 2.0 | 6.0 | 0.00 | 0.37 | 0.00 | 88 | 1012.1 |
| 20260903101535 | 66 | 160 | 1.0 | 9.0 | 0.00 | 0.37 | 0.00 | 88 | 1011.9 |
| 20260903101022 | 66 | 288 | 2.0 | 9.0 | 0.00 | 0.37 | 0.00 | 88 | 1011.9 |
| 20260903100522 | 66 | 236 | 0.0 | 8.0 | 0.00 | 0.37 | 0.00 | 88 | 1011.8 |
| 20260903100021 | 66 | 188 | 2.0 | 8.0 | 0.00 | 0.37 | 0.00 | 89 | 1011.8 |
| 20260903095521 | 66 | 225 | 2.0 | 10.0 | 0.00 | 0.37 | 0.00 | 89 | 1011.8 |
| 20260903095120 | 66 | 207 | 3.0 | 10.0 | 0.00 | 0.37 | 0.00 | 89 | 1011.8 |
| 20260903094519 | 66 | 208 | 2.0 | 7.0 | 0.00 | 0.37 | 0.00 | 90 | 1011.7 |
| 20260903094017 | 66 | 250 | 1.0 | 6.0 | 0.00 | 0.37 | 0.00 | 90 | 1011.7 |
| 20260903093516 | 66 | 40 | 2.0 | 6.0 | 0.00 | 0.37 | 0.00 | 90 | 1011.7 |
| 20260903093015 | 66 | 174 | 2.0 | 6.0 | 0.00 | 0.37 | 0.00 | 90 | 1011.6 |
| 20260903092517 | 65 | 175 | 1.0 | 6.0 | 0.00 | 0.37 | 0.00 | 90 | 1011.7 |
| 20260903092014 | 65 | 192 | 0.0 | 6.0 | 0.00 | 0.37 | 0.00 | 90 | 1011.6 |
| 20260903091515 | 65 | 149 | 1.0 | 7.0 | 0.00 | 0.37 | 0.00 | 90 | 1011.7 |
| 20260903091012 | 65 | 206 | 1.0 | 7.0 | 0.00 | 0.37 | 0.00 | 90 | 1011.6 |
| 20260903090512 | 66 | 192 | 3.0 | 7.0 | 0.00 | 0.37 | 0.00 | 90 | 1011.5 |
| 20260903090011 | 66 | 213 | 2.0 | 7.0 | 0.00 | 0.37 | 0.00 | 90 | 1011.6 |
| 20260903085508 | 66 | 46 | 0.0 | 5.0 | 0.00 | 0.37 | 0.00 | 90 | 1011.7 |
| 20260903085007 | 66 | 228 | 1.0 | 8.0 | 0.00 | 0.37 | 0.00 | 90 | 1011.7 |
| 20260903084506 | 66 | 258 | 0.0 | 8.0 | 0.00 | 0.37 | 0.00 | 91 | 1011.7 |
| 20260903084005 | 66 | 210 | 1.0 | 8.0 | 0.00 | 0.37 | 0.00 | 91 | 1011.7 |
| 20260903083504 | 66 | 209 | 3.0 | 8.0 | 0.00 | 0.37 | 0.00 | 91 | 1011.7 |
| 20260903083002 | 66 | 211 | 2.0 | 7.0 | 0.00 | 0.37 | 0.00 | 91 | 1011.7 |
| 20260903082500 | 66 | 247 | 3.0 | 7.0 | 0.00 | 0.37 | 0.00 | 91 | 1011.8 |
| 20260903082100 | 66 | 207 | 4.0 | 8.0 | 0.00 | 0.37 | 0.00 | 91 | 1011.8 |
| 20260903081600 | 66 | 238 | 4.0 | 11.0 | 0.00 | 0.37 | 0.00 | 91 | 1011.8 |
| 20260903081100 | 66 | 247 | 3.0 | 11.0 | 0.00 | 0.37 | 0.00 | 91 | 1011.8 |
| 20260903080553 | 65 | 155 | 2.0 | 7.0 | 0.00 | 0.37 | 0.00 | 91 | 1011.8 |
| 20260903080054 | 65 | 222 | 2.0 | 6.0 | 0.00 | 0.37 | 0.00 | 91 | 1011.9 |
| 20260903075558 | 65 | 197 | 2.0 | 6.0 | 0.00 | 0.37 | 0.00 | 92 | 1011.9 |
| 20260903075053 | 65 | 188 | 2.0 | 6.0 | 0.00 | 0.37 | 0.00 | 92 | 1011.9 |
| 20260903074553 | 65 | 308 | 2.0 | 7.0 | 0.00 | 0.37 | 0.00 | 92 | 1011.9 |
| 20260903074054 | 65 | 258 | 2.0 | 7.0 | 0.00 | 0.37 | 0.00 | 92 | 1011.9 |
| 20260903073553 | 65 | 196 | 1.0 | 5.0 | 0.00 | 0.37 | 0.00 | 92 | 1012.0 |
| 20260903073055 | 65 | 190 | 1.0 | 5.0 | 0.00 | 0.37 | 0.00 | 92 | 1012.0 |
| 20260903072552 | 65 | 36 | 1.0 | 5.0 | 0.00 | 0.37 | 0.00 | 92 | 1012.0 |
| 20260903072052 | 65 | 224 | 1.0 | 5.0 | 0.00 | 0.37 | 0.00 | 92 | 1012.0 |
| 20260903071552 | 65 | 317 | 0.0 | 7.0 | 0.00 | 0.37 | 0.00 | 92 | 1012.0 |
| 20260903071051 | 65 | 231 | 2.0 | 8.0 | 0.00 | 0.37 | 0.00 | 92 | 1012.0 |
| 20260903070550 | 65 | 193 | 0.0 | 8.0 | 0.00 | 0.37 | 0.00 | 91 | 1012.1 |
| 20260903070055 | 65 | 219 | 1.0 | 7.0 | 0.00 | 0.37 | 0.00 | 91 | 1012.0 |
| 20260903065551 | 65 | 194 | 2.0 | 7.0 | 0.00 | 0.37 | 0.00 | 92 | 1012.1 |
| 20260903065050 | 65 | 234 | 1.0 | 8.0 | 0.00 | 0.37 | 0.00 | 91 | 1012.1 |
| 20260903064550 | 65 | 187 | 1.0 | 9.0 | 0.00 | 0.37 | 0.00 | 92 | 1012.1 |
| 20260903064051 | 65 | 161 | 3.0 | 9.0 | 0.00 | 0.37 | 0.00 | 92 | 1012.0 |
| 20260903063549 | 65 | 213 | 2.0 | 9.0 | 0.00 | 0.37 | 0.00 | 92 | 1012.0 |
| 20260903063112 | 65 | 221 | 3.0 | 10.0 | 0.00 | 0.37 | 0.00 | 92 | 1012.0 |
| 20260903062546 | 65 | 207 | 5.0 | 10.0 | 0.00 | 0.37 | 0.00 | 92 | 1011.8 |
| 20260903062046 | 65 | 156 | 3.0 | 7.0 | 0.00 | 0.37 | 0.00 | 92 | 1011.9 |
| 20260903061546 | 65 | 206 | 1.0 | 7.0 | 0.00 | 0.37 | 0.00 | 92 | 1011.9 |
| 20260903061045 | 65 | 192 | 2.0 | 7.0 | 0.00 | 0.37 | 0.00 | 92 | 1011.9 |
| 20260903060545 | 65 | 227 | 2.0 | 7.0 | 0.00 | 0.37 | 0.00 | 92 | 1012.0 |
| 20260903060045 | 65 | 200 | 3.0 | 10.0 | 0.00 | 0.37 | 0.00 | 92 | 1011.9 |
| 20260903055545 | 65 | 10 | 2.0 | 12.0 | 0.00 | 0.37 | 0.00 | 92 | 1011.9 |
| 20260903055044 | 65 | 215 | 2.0 | 11.0 | 0.00 | 0.37 | 0.00 | 91 | 1011.8 |
| 20260903054545 | 65 | 142 | 1.0 | 8.0 | 0.00 | 0.37 | 0.00 | 92 | 1011.7 |
| 20260903054044 | 65 | 192 | 1.0 | 10.0 | 0.00 | 0.37 | 0.00 | 91 | 1011.7 |
| 20260903053546 | 65 | 209 | 3.0 | 14.0 | 0.00 | 0.37 | 0.00 | 92 | 1011.7 |
| 20260903053043 | 65 | 186 | 6.0 | 14.0 | 0.00 | 0.37 | 0.00 | 92 | 1011.8 |
| 20260903052543 | 65 | 200 | 4.0 | 13.0 | 0.00 | 0.37 | 0.00 | 92 | 1011.7 |
| 20260903052043 | 65 | 204 | 3.0 | 15.0 | 0.00 | 0.37 | 0.00 | 91 | 1011.6 |
| 20260903051545 | 65 | 202 | 4.0 | 15.0 | 0.00 | 0.37 | 0.00 | 91 | 1011.6 |
| 20260903051041 | 65 | 183 | 6.0 | 12.0 | 0.00 | 0.37 | 0.00 | 91 | 1011.5 |
| 20260903050540 | 65 | 198 | 4.0 | 14.0 | 0.00 | 0.37 | 0.00 | 91 | 1011.7 |
| 20260903050100 | 65 | 236 | 5.0 | 15.0 | 0.00 | 0.37 | 0.00 | 91 | 1011.9 |
| 20260903045540 | 65 | 252 | 5.0 | 13.0 | 0.00 | 0.37 | 0.00 | 91 | 1012.0 |
| 20260903045039 | 65 | 159 | 5.0 | 13.0 | 0.00 | 0.37 | 0.00 | 91 | 1012.1 |
| 20260903044539 | 65 | 192 | 6.0 | 14.0 | 0.00 | 0.37 | 0.00 | 92 | 1012.2 |
| 20260903044038 | 65 | 190 | 5.0 | 14.0 | 0.00 | 0.37 | 0.00 | 92 | 1012.2 |
| 20260903043539 | 64 | 218 | 4.0 | 14.0 | 0.00 | 0.37 | 0.00 | 92 | 1012.4 |
| 20260903043037 | 64 | 209 | 4.0 | 14.0 | 0.00 | 0.37 | 0.00 | 92 | 1012.4 |
| 20260903042537 | 64 | 203 | 5.0 | 14.0 | 0.01 | 0.37 | 0.00 | 92 | 1012.5 |
| 20260903042036 | 64 | 238 | 6.0 | 15.0 | 0.01 | 0.37 | 0.00 | 92 | 1012.7 |
| 20260903041535 | 64 | 234 | 6.0 | 15.0 | 0.01 | 0.37 | 0.00 | 92 | 1012.6 |
| 20260903041033 | 64 | 207 | 5.0 | 15.0 | 0.02 | 0.37 | 0.00 | 92 | 1012.5 |
| 20260903040532 | 64 | 194 | 1.0 | 9.0 | 0.02 | 0.37 | 0.00 | 91 | 1012.1 |
| 20260903040032 | 64 | 156 | 4.0 | 9.0 | 0.04 | 0.37 | 0.00 | 91 | 1011.8 |
| 20260903035530 | 64 | 150 | 2.0 | 12.0 | 0.04 | 0.37 | 0.37 | 91 | 1011.8 |